Location: Montr�al
(45.5000°N, 73.5830°W)
Time: 06:24:32
(UTC-04:00)

ISS - All Passes

Search period start: 05 September 2015 00:00
Search period end: 15 September 2015 00:00
Orbit: 400 x 402 km, 51.6° (Epoch: 04 September)

Date Brightness Start Highest point End Pass type
(mag) Time Alt. Az. Time Alt. Az. Time Alt. Az.
05 Sep - 07:10:32 10° SSW 07:13:13 24° SE 07:15:56 10° E daylight
05 Sep - 08:46:13 10° WSW 08:49:26 58° NNW 08:52:40 10° ENE daylight
05 Sep - 10:23:26 10° WNW 10:26:17 27° N 10:29:08 10° ENE daylight
05 Sep - 12:00:11 10° NW 12:03:15 36° NNE 12:06:19 10° E daylight
05 Sep - 13:36:34 10° WNW 13:39:46 52° SW 13:42:56 10° SE daylight
06 Sep - 06:18:24 10° SSE 06:20:04 14° SE 06:21:49 10° ESE daylight
06 Sep - 07:52:49 10° WSW 07:56:04 87° SSE 07:59:21 10° ENE daylight
06 Sep - 09:29:49 10° WNW 09:32:46 30° N 09:35:42 10° NE daylight
06 Sep - 11:06:50 10° NW 11:09:45 29° N 11:12:41 10° ENE daylight
06 Sep - 12:43:11 10° WNW 12:46:28 88° NNE 12:49:43 10° ESE daylight
06 Sep - 14:20:35 10° W 14:22:29 14° SW 14:24:19 10° S daylight
07 Sep - 06:59:37 10° SW 07:02:46 49° SE 07:05:57 10° ENE daylight
07 Sep - 08:36:11 10° W 08:39:15 37° NNW 08:42:20 10° NE daylight
07 Sep - 10:13:23 10° WNW 10:16:13 27° N 10:19:04 10° ENE daylight
07 Sep - 11:49:51 10° WNW 11:53:05 55° NNE 11:56:17 10° ESE daylight
07 Sep - 13:26:33 10° W 13:29:19 25° SW 13:32:03 10° SSE daylight
08 Sep - 06:06:43 10° SSW 06:09:31 27° SE 06:12:22 10° E daylight
08 Sep - 07:42:36 10° W 07:45:48 52° NNW 07:49:01 10° NE daylight
08 Sep - 09:19:50 10° WNW 09:22:40 26° N 09:25:31 10° ENE daylight
08 Sep - 10:56:32 10° NW 10:59:37 38° NNE 11:02:42 10° E daylight
08 Sep - 12:32:56 10° WNW 12:36:05 46° SW 12:39:12 10° SE daylight
09 Sep - 05:14:21 10° S 05:16:20 16° SE 05:18:24 10° E visible
09 Sep - 06:49:08 10° WSW 06:52:24 83° NNW 06:55:40 10° ENE daylight
09 Sep - 08:26:12 10° WNW 08:29:07 29° N 08:32:02 10° NE daylight
09 Sep - 10:03:09 10° NW 10:06:06 31° N 10:09:04 10° ENE daylight
09 Sep - 11:39:30 10° WNW 11:42:46 82° SSW 11:46:01 10° ESE daylight
09 Sep - 13:17:13 10° WSW 13:18:45 13° SW 13:20:10 10° SSW daylight
10 Sep - 05:55:50 10° SW 05:59:02 56° SSE 06:02:15 10° ENE visible
10 Sep - 07:32:32 10° W 07:35:35 35° NNW 07:38:38 10° NE daylight
10 Sep - 09:09:41 10° NW 09:12:33 27° N 09:15:24 10° ENE daylight
10 Sep - 10:46:08 10° WNW 10:49:22 61° NNE 10:52:36 10° ESE daylight
10 Sep - 12:22:56 10° W 12:25:34 22° SW 12:28:09 10° SSE daylight
11 Sep - 05:02:50 10° SSW 05:05:45 31° SE 05:08:42 10° ENE visible
11 Sep - 06:38:54 10° W 06:42:04 48° NNW 06:45:15 10° NE daylight
11 Sep - 08:16:08 10° WNW 08:18:58 26° N 08:21:48 10° ENE daylight
11 Sep - 09:52:46 10° NW 09:55:54 41° NNE 09:59:01 10° E daylight
11 Sep - 11:29:14 10° WNW 11:32:18 40° SW 11:35:22 10° SSE daylight
12 Sep - 04:10:16 10° S 04:12:31 18° SE 04:14:50 10° E visible
12 Sep - 05:45:22 10° WSW 05:48:37 75° NNW 05:51:53 10° ENE visible
12 Sep - 07:22:29 10° WNW 07:25:22 28° N 07:28:16 10° NE daylight
12 Sep - 08:59:23 10° NW 09:02:21 32° NNE 09:05:21 10° ENE daylight
12 Sep - 10:35:43 10° WNW 10:38:59 72° SSW 10:42:13 10° SE daylight
12 Sep - 12:13:57 10° WSW 12:14:54 11° SW 12:15:44 10° SSW daylight
13 Sep - 04:52:00 10° SW 04:55:14 65° SSE 04:58:28 10° ENE visible
13 Sep - 06:28:47 10° W 06:31:48 33° NNW 06:34:49 10° NE daylight
13 Sep - 08:05:54 10° NW 08:08:47 28° N 08:11:39 10° ENE daylight
13 Sep - 09:42:19 10° WNW 09:45:34 68° NNE 09:48:49 10° ESE daylight
13 Sep - 11:19:14 10° W 11:21:43 20° SW 11:24:07 10° S daylight
14 Sep - 03:58:53 10° SSW 04:01:53 35° SE 04:04:55 10° ENE visible
14 Sep - 05:35:07 10° W 05:38:15 44° NNW 05:41:25 10° NE visible
14 Sep - 07:12:20 10° WNW 07:15:10 26° N 07:18:00 10° ENE daylight
14 Sep - 08:48:55 10° NW 08:52:05 45° NNE 08:55:13 10° E daylight
14 Sep - 10:25:26 10° WNW 10:28:27 35° SW 10:31:26 10° SSE daylight
